sat.trackr.live / text

‹ back to catalog

M2 PATHFINDER

NORAD 45727 · 2020-037E

PAYLOAD ACTIVE UNKNOWN

§ Identity

Operator
Country
AUS
Launch date
2020-06-13
Launch site
RLLB
Launch vehicle
Mass (kg)
RCS (m²)

Purposes: tech_demo

External: N2YO · Heavens-Above · Gunter

§ Orbital elements

Epoch: 2026-09-19T23:57:53.711712Z

Period
95.68 min
Inclination
97.8134°
Eccentricity
0.0011157
Mean motion
15.05036352 rev/d
Perigee alt
543.7 km
Apogee alt
559.1 km
Semi-major
6,929.5 km
B*
1.0799e-4
RAAN
95.3259°
Arg perigee
184.9267°
Mean anomaly
175.1851°
Rev number
33,975

§ Raw data

M2 PATHFINDER1 45727U 20037E   26262.99853833  .00001471  00000+0  10799-3 0  99942 45727  97.8134  95.3259 0011157 184.9267 175.1851 15.05036352339759

JSON: /api/v1/satellites/45727 · /tle

For live sub-satellite position, see the globe view (requires WebGL).

§ Visibility from observer

Set your observer location to see the next 7 days of passes ≥ 10°. The values pass through the URL so the page stays shareable.

No JS? Fill the form by hand. The geolocation button needs JavaScript.

§ Radio — SatNOGS DB

ModeDescriptionDownlinkUplink
FSK TLM 449.538 MHz

1 transmitter · refreshed weekly from db.satnogs.org